Location: Allos
(44.2333°N, 6.6333°E)
Time: 23:22:20
(UTC+00:00)

Cosmos 1821 Rocket - Pass Details

Date: 18 April 2021
Orbit: 946 x 1003 km, 82.9° (Epoch: 16 May)

Event Time Altitude Azimuth Distance (km) Brightness Sun altitude
Rises 01:44:15 0° 354° (N) 3,697 7.7 -27.4°
Reaches altitude 10° 01:46:48 10° 357° (N) 2,753 7.0 -27.1°
Maximum altitude 01:53:05 65° 79° (E) 1,086 4.3 -26.4°
Enters shadow 01:56:21 30° 153° (SSE) 1,712 5.0 -26.0°
